Weather History for Quantico, VA

Change the Weather History Date:

Tuesday, May 21, 2013

  Actual Average Record
Temperature  
Mean Temperature 73 °F -  
Max Temperature 77 °F 72 °F 84 °F (1998)
Min Temperature 69 °F 55 °F 41 °F (2002)
Cooling Degree Days 8    
Growing Degree Days 23 (Base 50)    
Moisture  
Dew Point 67 °F    
Average Humidity 84    
Maximum Humidity 90    
Minimum Humidity 76    
Precipitation  
Precipitation 0.00 in - - ()
Sea Level Pressure  
Sea Level Pressure 29.97 in    
Wind  
Wind Speed 8 mph (SSW)    
Max Wind Speed 15 mph    
Max Gust Speed -    
Visibility 10 miles    
Events      
Averages and records for this station are not official NWS values.
T = Trace of Precipitation, MM = Missing Value Source: NWS Daily Summary

Daily Weather History Graph

Daily Weather History Graph

Search for Another Location

Airport:

Trip Planner

Search our weather history database for the weather conditions in past years. The results will help you decide how hot, cold, wet, or windy it might be!

Date:

Astronomy

May. 21, 2013 Rise Set
Actual Time 5:52 AM EDT 8:19 PM EDT
Civil Twilight 5:22 AM EDT 8:49 PM EDT
Nautical Twilight 4:44 AM EDT 9:27 PM EDT
Astronomical Twilight 4:03 AM EDT 10:09 PM EDT
Moon 4:33 PM EDT (5/21) 3:16 AM EDT (5/21)
Length of Visible Light 15h 27m
Length of Day
14h 26m
Waxing Gibbous, 84% of the Moon is Illuminated
May 21
Waxing Gibbous
May 25
Full
May 31
Last Quarter
Jun 8
New
Jun 16
First Quarter

Hourly Weather History & Observations

Time (EDT) Temp. Dew Point Humidity Pressure Visibility Wind Dir Wind Speed Gust Speed Precip Events Conditions
12:56 AM 69.1 °F 66.0 °F 90% 30.02 in 10.0 mi SW 9.2 mph - N/A   Mostly Cloudy
1:28 AM 69.8 °F 66.2 °F 88% 30.01 in 10.0 mi SSW 6.9 mph - N/A   Scattered Clouds
1:56 AM 69.1 °F 66.0 °F 90% 30.00 in 10.0 mi SSW 8.1 mph - N/A   Clear
2:48 AM 69.8 °F 66.2 °F 88% 29.98 in 10.0 mi SSW 10.4 mph - N/A   Mostly Cloudy
2:56 AM 69.1 °F 66.0 °F 90% 29.99 in 10.0 mi SSW 11.5 mph - N/A   Mostly Cloudy
3:12 AM 69.8 °F 66.2 °F 88% 29.98 in 10.0 mi SSW 9.2 mph - N/A   Overcast
3:56 AM 70.0 °F 64.9 °F 84% 29.99 in 10.0 mi Variable 3.5 mph - N/A   Overcast
4:51 AM 69.8 °F 64.4 °F 83% 29.98 in 10.0 mi SW 4.6 mph - N/A   Overcast
4:56 AM 70.0 °F 64.9 °F 84% 29.99 in 10.0 mi SW 5.8 mph - N/A   Overcast
5:56 AM 70.0 °F 64.9 °F 84% 30.01 in 10.0 mi SW 6.9 mph - N/A   Overcast
6:56 AM 70.0 °F 64.9 °F 84% 30.01 in 10.0 mi SW 4.6 mph - N/A   Overcast
7:56 AM 70.0 °F 66.0 °F 87% 30.02 in 10.0 mi SSW 4.6 mph - N/A   Overcast
8:56 AM 70.0 °F 66.0 °F 87% 30.02 in 9.0 mi South 8.1 mph - N/A   Overcast
9:56 AM 71.1 °F 66.9 °F 87% 30.03 in 9.0 mi South 5.8 mph - N/A   Overcast
10:56 AM 73.0 °F 66.9 °F 81% 30.01 in 10.0 mi SSW 6.9 mph - N/A   Overcast
11:56 AM 72.0 °F 66.9 °F 84% 30.01 in 10.0 mi South 9.2 mph - N/A   Overcast
12:56 PM 75.0 °F 68.0 °F 79% 30.00 in 10.0 mi SSW 5.8 mph - N/A   Mostly Cloudy
1:56 PM 75.0 °F 70.0 °F 84% 29.99 in 10.0 mi South 10.4 mph - N/A   Scattered Clouds
2:56 PM 75.0 °F 69.1 °F 82% 29.96 in 10.0 mi South 15.0 mph - N/A   Scattered Clouds
3:56 PM 75.9 °F 69.1 °F 79% 29.95 in 10.0 mi South 11.5 mph - N/A   Scattered Clouds
4:56 PM 77.0 °F 69.1 °F 76% 29.93 in 10.0 mi South 10.4 mph - N/A   Scattered Clouds
5:56 PM 75.9 °F 69.1 °F 79% 29.91 in 10.0 mi South 11.5 mph - N/A   Scattered Clouds
6:56 PM 75.9 °F 69.1 °F 79% 29.91 in 10.0 mi SSW 6.9 mph - N/A   Scattered Clouds
7:56 PM 75.0 °F 69.1 °F 82% 29.91 in 10.0 mi SSW 5.8 mph - N/A   Mostly Cloudy
8:56 PM 73.0 °F 68.0 °F 84% 29.91 in 9.0 mi SSW 4.6 mph - N/A   Clear
9:56 PM 71.1 °F 68.0 °F 90% 29.91 in 7.0 mi South 8.1 mph - N/A   Clear
10:56 PM 73.9 °F 68.0 °F 82% 29.92 in 10.0 mi Calm Calm - N/A   Clear
11:56 PM 72.0 °F 68.0 °F 87% 29.91 in 8.0 mi SSW 5.8 mph - N/A   Clear